Regional Weather Roundup
Issued by NWS Wakefield, VA

Home | Current Version | Previous Version | Text Only | Print | Product List | Glossary Off
Versions: 1 2 3 4 5 6 7 8 9 10 11 12 13 14 15 16 17 18 19 20 21 22 23 24 25 26 27

000
ASUS41 KAKQ 262015
RWRAKQ

REGIONAL WEATHER ROUNDUP
NATIONAL WEATHER SERVICE WAKEFIELD VA
400 PM EDT WED JUL 26 2017

Note: "fair" indicates few or no clouds below 12,000 feet with no
significant weather and/or obstructions to visibility. * = Denotes
station may not report precipitation (e.g., rain,snow,etc.),
thunder or fog.

VAZ042-051-052>054-056-262100-
NORTHERN VIRGINIA

CITY           SKY/WX    TMP DP  RH WIND       PRES   REMARKS
WASH NATIONAL  PTSUNNY   85  63  47 SE5       30.13F
DULLES         PTSUNNY   82  62  50 SE7       30.13F
FORT BELVOIR   SUNNY     85  61  44 SW5       30.12F
QUANTICO       MOSUNNY   84  67  56 S5        30.13F
FREDERICKSBRG* SUNNY     85  65  49 CALM      30.11F
STAFFORD*      MOSUNNY   84  62  48 W5        30.16F
WARRENTON      MOSUNNY   84  57  39 CALM      30.13F
CULPEPER*      PTSUNNY   84  64  50 E5        30.13F
MANASSAS*      SUNNY     83  65  54 W5        30.13F
LEESBURG*      MOSUNNY   86  63  45 S5        30.14F
WINCHESTER     PTSUNNY   79  63  57 SE8       30.14F
FRONT ROYAL*   MOCLDY    82  64  54 NE8       30.12F
LURAY*         PTCLDY    82  63  51 SW5       30.14F
$$

VAZ048-049-060>072-079>083-262100-
CENTRAL AND SOUTH CENTRAL VIRGINIA

CITY           SKY/WX    TMP DP  RH WIND       PRES   REMARKS
RICHMOND       MOSUNNY   85  63  47 NE7       30.11F
CHESTERFIELD*  NOT AVBL
PETERSBURG*    PTSUNNY   87  58  38 CALM      30.12F
HANOVER        PTSUNNY   85  63  47 E3        30.13F
TAPPAHANNOCK*  PTSUNNY   85  55  34 E7        30.13F
QUINTON*       FAIR      85  64  50 NW3       30.11F
CHARLOTTSVILLE PTSUNNY   83  64  52 S5        30.14F
GORDONSVILLE*  CLOUDY    85  64  50 CALM      30.13S
ORANGE*        CLOUDY    82  63  51 CALM      30.14S
LOUISA*        PTSUNNY   84  63  48 SW6       30.13S
BUMPASS*       FAIR      85  64  47 SW6       30.12F
FARMVILLE*     MOSUNNY   87  56  34 CALM      30.11F
CREWE*         CLOUDY    85  57  38 CALM      30.12F
FORT PICKETT*  FAIR     N/A N/A N/A N7        30.12F
CHASE CITY*    MOCLDY    86  65  48 SW5       30.12F
CLARKSVILLE*   FAIR      86  64  48 W5        30.12F
SOUTH HILL*    PTSUNNY   87  66  48 CALM      30.17F
LAWRENCEVILLE* FAIR      88  63  44 MISG      30.11F
EMPORIA*       SUNNY     84  63  48 E5        30.13F
$$

VAZ088>098-262100-
SOUTHEAST VIRGINIA

CITY           SKY/WX    TMP DP  RH WIND       PRES   REMARKS
NORFOLK        SUNNY     84  64  50 E9        30.14F
VIRGINIA BEACH MOSUNNY   78  65  63 E10       30.14F
NORFOLK NAVAL  MOSUNNY   85  65  51 NE12G22   30.15F
WEST POINT*    SUNNY     86  63  46 SE10G16   30.14F
SALUDA*        FAIR      82  69  66 SE6       30.14F
NEWPORT NEWS   MOSUNNY   84  64  50 E10       30.13F
LANGLEY AFB    SUNNY     82  66  58 E10       30.13F
FORT EUSTIS    MOSUNNY   87  65  47 S9G20     30.10F
WILLIAMSBURG*  SUNNY     88  66  48 SE9       30.13F
HR EXEC AP*    NOT AVBL
FRANKLIN*      CLOUDY    84  66  54 E7        30.13F
US460-WAKEFLD  MOSUNNY   84  67  56 VRB6      30.12F
$$

VAZ020-022-025-037-045-262100-
WEST CENTRAL AND SOUTHWEST VIRGINIA

CITY           SKY/WX    TMP DP  RH WIND       PRES   REMARKS
STAUNTON*      CLOUDY    82  64  53 S5        30.18S
WAYNESBORO*    CLOUDY    79  66  63 SW5       30.17F
HOT SPRINGS VA CLOUDY    68  55  64 CALM      30.29F
LYNCHBURG      CLOUDY    80  65  59 S6        30.16F
DANVILLE       PTSUNNY   84  70  62 VRB3      30.13F
SOUTH BOSTON*  FAIR      87  65  48 CALM      30.12F
MARTINSVILLE   CLOUDY    81  66  60 CALM      30.18F
ROANOKE        CLOUDY    81  65  58 CALM      30.18F
BLACKSBURG     CLOUDY    79  65  62 S5        30.23F
DUBLIN*        PTSUNNY   81  60  48 S6        30.21F
MARION*        MOSUNNY   83  63  51 E3        30.22F
HILLSVILLE*    PTSUNNY   76  62  62 CALM      30.22F
RICHLANDS*     FAIR      82  57  42 W6        30.21S
WISE*          SUNNY     86  59  39 W9        30.21F
ABINGDON*      SUNNY     88  59  37 N5        30.16F
$$

MDZ021>025-VAZ099-100-262100-
SOUTHERN MARYLAND AND THE DELMARVA PENINSULA

CITY           SKY/WX    TMP DP  RH WIND       PRES   REMARKS
PATUXENT RIVER MOSUNNY   80  67  64 SE7       30.14F
BAY BRIDGE APT SUNNY     82  64  54 SW5       30.13F
LEONARDTOWN    SUNNY     81  64  57 E6        30.15F
DOVER          MOSUNNY   77  77 100 SE10      30.15F
GEORGETOWN     PTSUNNY   77  63  61 E12       30.17F
EASTON         MOSUNNY   82  64  54 S7        30.18F
CAMBRIDGE      SUNNY     81  66  61 SE12      30.14F
SALISBURY      PTSUNNY   76  67  73 SE13      30.16F
OCEAN CITY     MOSUNNY   75  65  70 E9        30.18F
WALLOPS ISLAND CLOUDY    75  67  76 E10       30.17F
ACCOMACK*      PTSUNNY   78  67  68 SE7       30.16F
$$

NCZ012>017-030>032-262100-
NORTH CENTRAL AND EASTERN NORTH CAROLINA

CITY           SKY/WX    TMP DP  RH WIND       PRES   REMARKS
ROANOKE RAPIDS FAIR      86  66  51 E3        30.13F
RALEIGH        PTSUNNY   87  65  47 SE6       30.13F
ELIZABETH CITY SUNNY     83  69  62 E8        30.14F
AHOSKIE*         N/A     83  67  60 E5        30.13F
EDENTON*       MOSUNNY   83  69  63 SE9       30.14F
CURRITUCK*     SUNNY     80  66  62 E7        30.15F
KILL DEVIL HLS SUNNY     79  65  61 CALM      30.14F
MANTEO         SUNNY     80  67  65 NE14      30.15F
CAPE HATTERAS  CLOUDY    82  66  58 E12G17    30.14S
TARBORO*       NOT AVBL
GOLDSBORO      MOSUNNY   90  64  42 E6        30.10F
WASHINGTON     MOSUNNY   85  71  60 NE8       30.13F
GREENVILLE     SUNNY     88  68  51 E3        30.14F
NEW BERN       MOSUNNY   86  68  54 E9        30.13F
WILMINGTON     MOSUNNY   85  68  56 E9        30.10F
$$

VAZ048-262100-
ELSEWHERE

CITY           SKY/WX    TMP DP  RH WIND       PRES   REMARKS
HARRISBURG PA  SUNNY     80  65  59 S3        30.13F
BALTIMORE      PTSUNNY   79  66  64 VRB7      30.13F
ANNAPOLIS      SUNNY     80  69  69 SE8       30.13F
ANDREWS AFB    SUNNY     80  66  63 E6        30.13F
PHILADELPHIA   MOSUNNY   81  60  48 SE5       30.15F
HENDERSON NC   MOSUNNY   84  61  45 W3        30.12F
GREENSBORO     PTSUNNY   86  69  56 SE5       30.14F
ROCKY MOUNT      N/A     85  68  56 CALM      30.13F
$$

VAZ100-262100-
MARINE

STATION/POSITION TIME  TEMP    WIND        PRES    WAVE   SWELL
                       AIR SEA DIR/SP/G            HT/PER HT/PER
                 (UTC) (F)     (DEG/KT/KT) (MB)    (FT/S) (FT/S)
BRANDYWINE LGT   1942   72     100/  9/ 11 1022.1F
CAPE MAY NJ      1948   72 75  110/ 10/ 12 1021.3F
LEWES DE         1948   72 76  100/ 10/ 13 1021.6F
15NM E FENWICK I 1950   73 77   50/  8/ 12 1022.5S   3/ 6   2/ 6
OCEAN-CITY-INLET 1948   74 73   90/  8/ 11 1022.4F
WACHAPREAGUE VA  1948   76 84  110/  5/  9 1021.3F
THOMAS POINT MD  2000   78 82  130/  5/  6   N/A
GOOSES REEF MD   2000   79 84  150/  4/  8 1021.3    0
COVE POINT MD    1948   78     170/  7/  9 1021.3F
SOLOMONS ISLAND  1942   78 84  120/  7/  9   N/A
BISHOPS HEAD MD  1948   79 85  220/  3/  5 1021.0F
PINEY POINT MD   1948          160/  8/ 10   N/A
CAMBRIDGE MD     1948   80 87              1021.6F
LEWISETTA VA     1948   79 83  110/  7/  9 1020.6F
RAPPAHANNOCK LGT 1948          160/  6/  8 1021.4F
STINGRAY PT      2000   78 84  170/  8/ 12 1021.1
YORK RVR RNG VA  1948   76     150/ 14/ 15 1021.0F
YORKTOWN VA      1948   79 82  110/ 11/ 15 1020.2F
JAMESTOWN VA     1950          150/ 10/ 14   N/A
DOMINION TERM VA 1948   78      80/ 11/ 14 1020.6F
KIPTOPEKE VA     1948      74  160/ 10/ 12   N/A
CHES BAY BRIDGE  1948   74 72  100/ 13/ 14 1020.9F
CAPE HENRY VA    1948   75     100/  9/ 11   N/A
WILLOUBY STN VA  1948   76      90/ 14/ 15 1020.5F
S CRANEY ISL VA  1948   83      90/  7/ 11 1020.3F
CAPE HENRY BUOY  1930      75                N/A     2/ 6
1ST LANDING BUOY 2000   75 77              1020.8    1/ 3
64NM E OF VA BCH 1950   75 78   60/ 10/ 10 1021.6F   3/ 7   3/ 7
DUCK PIER NC     1948   76 76   60/  8/  9 1020.7F
44100 DUCK FRF   1905      78                N/A     3/ 7
44056 DUCK FRF   1930      75                N/A     3/ 6
OREGON INLET NC  1936   77 75   40/ 10/ 12 1020.7F
HATTERAS NC      1948   80 78   50/ 12/ 15 1020.3F
DIAMOND SHLS NC  1950   80 83   30/ 12/ 12 1020.1F   3/ 5   2/ 6
CAPE LOOKOUT NC  2000   79      40/ 13/ 15 1019.7F
$$




USA.gov is the U.S. government's official web portal to all federal, state and local government web resources and services.